Location: Goll?ig?dem
(16.6773°N, 80.7332°E)
Time: 21:47:58
(UTC+00:00)

Hubble Space Telescope - Pass Details

Date: 03 October 2021
Orbit: 535 x 538 km, 28.5° (Epoch: 22 October)

Event Time Altitude Azimuth Distance (km) Brightness Sun altitude
Exits shadow 23:36:18 10° 223° (SW) 1,768 3.0 -13.1°
Maximum altitude 23:40:11 42° 152° (SSE) 760 1.8 -12.2°
Drops below altitude 10° 23:44:06 10° 80° (E) 1,778 4.9 -11.2°
Sets 23:46:26 0° 74° (ENE) 2,668 5.9 -10.7°
